Find Starlink 34564

NORAD ID: 64852 Int'l Des: 2025-152 Owner: SPXS Country: US Constellation: starlink operational
LEOCIRCULARRETROGRADESSO

当前视图

正在加载3D地球...

About Starlink 34564

Starlink 34564 (NORAD 64852) is a starlink constellation satellite (v2 mini) launched Jul 19, 2025 by SPXS of US. It operates in LEO, CIRCULAR, RETROGRADE, SSO orbit with a mass of 575.00 kg.

即将过境

Passes for default location (London). Set your location on the main map for personalized predictions.

高度历史

Loading altitude history...

两行轨道根数

1 64852U 25152L 26263.47231462 .00011520 00000-0 35855-3 0 9996
2 64852 97.2839 114.0895 0002011 87.4996 272.6477 15.33450475 64822
Epoch: Sep 20, 2026 • Age: 14 hours

当前状态

高度 467.4 km
远地点 / 近地点 N/A
速度 7.63 km/s
星下点 11.64°N, 91°E
发射日期 Jul 19, 2025
运行时间 1.1 years
类型 internet

技术详情

分类 Payload
质量 575.00 kg
干质量 530.00 kg
长度 0.30 m
跨度 29.00 m
形状 ? Box + pan
制造商 SPXS
平台类型 Starlink V2MO
阶段状态 In Orbit
所有者/国家 SPXS/US

Most Searched